| time (UTC) | temp F | wind direction | speed MPH | gust MPH | rain 1hr in | rain 24hr in | rain mn in | humidity % | barometer mb |
| 20260506000211 | 49 | 42 | 0.0 | 0.0 | 0.00 | 0.00 | 0.00 | 76 | 1009.5 |
| 20260505233209 | 51 | 42 | 0.0 | 0.0 | 0.00 | 0.00 | 0.00 | 76 | 1009.7 |
| 20260505230209 | 52 | 283 | 5.0 | 0.0 | 0.00 | 0.00 | 0.00 | 75 | 1009.6 |
| 20260505223210 | 52 | 336 | 2.0 | 0.0 | 0.00 | 0.00 | 0.00 | 76 | 1009.6 |
| 20260505220209 | 53 | 337 | 4.0 | 0.0 | 0.00 | 0.00 | 0.00 | 76 | 1009.5 |
| 20260505213211 | 53 | 15 | 2.0 | 0.0 | 0.00 | 0.00 | 0.18 | 76 | 1009.6 |
| 20260505210215 | 54 | 332 | 3.0 | 0.0 | 0.00 | 0.00 | 0.18 | 76 | 1009.7 |
| 20260505203209 | 54 | 360 | 3.0 | 0.0 | 0.00 | 0.00 | 0.18 | 77 | 1009.4 |
| 20260505200210 | 55 | 290 | 4.0 | 0.0 | 0.00 | 0.00 | 0.18 | 77 | 1009.0 |
| 20260505193209 | 55 | 350 | 5.0 | 0.0 | 0.00 | 0.00 | 0.18 | 77 | 1008.7 |
| 20260505190215 | 55 | 113 | 1.0 | 0.0 | 0.00 | 0.00 | 0.18 | 77 | 1008.6 |
| 20260505183212 | 56 | 113 | 1.0 | 0.0 | 0.00 | 0.00 | 0.17 | 78 | 1008.5 |
| 20260505180211 | 57 | 0 | 0.0 | 0.0 | 0.00 | 0.00 | 0.17 | 78 | 1008.3 |
| 20260505173210 | 57 | 53 | 0.0 | 0.0 | 0.00 | 0.00 | 0.14 | 80 | 1008.6 |
| 20260505170210 | 58 | 0 | 0.0 | 0.0 | 0.00 | 0.00 | 0.14 | 81 | 1008.2 |
| 20260505163211 | 58 | 0 | 0.0 | 0.0 | 0.00 | 0.00 | 0.13 | 81 | 1008.2 |
| 20260505153210 | 58 | 149 | 2.0 | 0.0 | 0.00 | 0.00 | 0.13 | 77 | 1008.2 |
| 20260505150216 | 57 | 86 | 1.0 | 0.0 | 0.00 | 0.00 | 0.13 | 78 | 1008.7 |
| 20260505140210 | 56 | 5 | 5.0 | 0.0 | 0.00 | 0.00 | 0.12 | 80 | 1009.2 |
| 20260505130210 | 59 | 252 | 9.0 | 0.0 | 0.00 | 0.00 | 0.03 | 82 | 1009.2 |
| 20260505123210 | 66 | 323 | 1.0 | 0.0 | 0.00 | 0.00 | 0.00 | 70 | 1008.1 |
| 20260505120210 | 67 | 329 | 3.0 | 0.0 | 0.00 | 0.00 | 0.00 | 67 | 1008.1 |
| 20260505113210 | 67 | 309 | 2.0 | 0.0 | 0.00 | 0.00 | 0.00 | 72 | 1008.0 |
| 20260505110211 | 67 | 338 | 5.0 | 0.0 | 0.00 | 0.00 | 0.00 | 65 | 1008.2 |
| 20260505100212 | 69 | 205 | 5.0 | 0.0 | 0.00 | 0.00 | 0.00 | 65 | 1008.6 |
| 20260505093212 | 67 | 320 | 3.0 | 0.0 | 0.00 | 0.00 | 0.00 | 72 | 1008.8 |
| 20260505090212 | 64 | 71 | 4.0 | 0.0 | 0.00 | 0.00 | 0.00 | 76 | 1009.2 |
| 20260505083211 | 61 | 207 | 4.0 | 0.0 | 0.00 | 0.00 | 0.00 | 76 | 1009.5 |
| 20260505080210 | 60 | 244 | 3.0 | 0.0 | 0.00 | 0.00 | 0.00 | 79 | 1009.8 |
| 20260505073211 | 59 | 195 | 0.0 | 0.0 | 0.00 | 0.00 | 0.00 | 80 | 1009.9 |
| 20260505070211 | 57 | 159 | 0.0 | 0.0 | 0.00 | 0.00 | 0.00 | 82 | 1010.2 |
| 20260505063211 | 56 | 157 | 0.0 | 0.0 | 0.00 | 0.00 | 0.00 | 83 | 1010.3 |
| 20260505060212 | 54 | 296 | 0.0 | 0.0 | 0.00 | 0.00 | 0.00 | 83 | 1010.4 |
| 20260505053211 | 53 | 296 | 0.0 | 0.0 | 0.00 | 0.00 | 0.00 | 83 | 1010.4 |
| 20260505050211 | 51 | 296 | 0.0 | 0.0 | 0.00 | 0.00 | 0.00 | 83 | 1010.7 |
| 20260505040211 | 51 | 238 | 0.0 | 0.0 | 0.00 | 0.00 | 0.00 | 84 | 1010.6 |
| 20260505033211 | 51 | 5 | 0.0 | 0.0 | 0.00 | 0.00 | 0.00 | 84 | 1010.7 |
| 20260505030213 | 52 | 15 | 0.0 | 0.0 | 0.00 | 0.00 | 0.00 | 84 | 1011.1 |
| 20260505023211 | 53 | 15 | 0.0 | 0.0 | 0.00 | 0.00 | 0.00 | 83 | 1011.3 |
| 20260505020211 | 55 | 15 | 0.0 | 0.0 | 0.00 | 0.00 | 0.00 | 82 | 1011.6 |
| 20260505013211 | 56 | 10 | 0.0 | 0.0 | 0.00 | 0.00 | 0.00 | 81 | 1012.1 |
| 20260505010211 | 56 | 10 | 0.0 | 0.0 | 0.00 | 0.00 | 0.00 | 81 | 1012.2 |
| 20260505003208 | 56 | 9 | 0.0 | 0.0 | 0.00 | 0.00 | 0.00 | 80 | 1012.2 |